{"data":{"norad_id":64894,"epoch":"2026-05-25T03:50:53.783808Z","epoch_age_seconds":75385,"freshness":"FRESH","line1":"1 64894U 25155U   26145.16034472  .00037528  00000+0  87914-3 0  9990","line2":"2 64894  97.4478 116.1373 0001822 241.2625 118.8439 15.42006435 77412","mean_motion":15.42006435,"eccentricity":0.0001822,"inclination_deg":97.4478,"raan_deg":116.1373,"arg_perigee_deg":241.2625,"mean_anomaly_deg":118.8439,"bstar":0.00087914,"rev_number":7741,"period_min":93.384824298739,"perigee_km":438.94599852332,"apogee_km":441.43059626169,"semimajor_km":6818.3252973925,"source":"CELESTRAK","updated_at":"2026-05-25T13:38:23.330319Z"}}